Tracking 18844 objects as of 21-Nov-2017
HD Live streaming from Space Station
objects crossing your sky now

COSMOS 2178 (GLONASS)

Track COSMOS 2178 (GLONASS) now!
COSMOS 2178 (GLONASS) is classified as:


NORAD ID: 21854
Int'l Code: 1992-005B
Perigee: 19,061.0 km
Apogee: 19,212.4 km
Inclination: 64.0 °
Period: 675.7 minutes
Semi major axis: 25507 km
RCS: 3.102 m2 (large)
Launch date: January 29, 1992
Source: Commonwealth of Independent States (former USSR) (CIS)
Launch site: TYURATAM MISSILE AND SPACE COMPLEX (TTMTR)
SV:
aabbcc
Your satellite tracking list
Your tracking list is empty




NASA's NSSDC Master Catalog

Two Line Element Set (TLE):
1 21854U 92005B   17324.81178813  .00000062  00000-0  00000+0 0  9997
2 21854  64.0381 177.8402 0029692  19.5167  54.0096  2.13106266200890
Source of the keplerian elements: AFSPC